TimeEST,TemperatureF,Dew PointF,Humidity,Sea Level PressureIn,VisibilityMPH,Wind Direction,Wind SpeedMPH,Gust SpeedMPH,PrecipitationIn,Events,Conditions,WindDirDegrees,DateUTC
12:14 AM,51.8,48.2,88,29.63,9.0,SW,10.4,-,0.00,,Overcast,220,2012-12-16 05:14:00
12:37 AM,51.8,48.2,88,29.64,10.0,SW,9.2,-,N/A,,Overcast,220,2012-12-16 05:37:00
12:50 AM,51.8,48.2,88,29.64,9.0,SW,10.4,-,0.00,,Overcast,220,2012-12-16 05:50:00
12:54 AM,51.1,48.0,89,29.64,10.0,SSW,11.5,-,0.00,,Overcast,210,2012-12-16 05:54:00
1:54 AM,50.0,46.9,89,29.63,9.0,SW,8.1,-,0.00,,Overcast,220,2012-12-16 06:54:00
2:54 AM,50.0,46.0,86,29.63,10.0,SW,10.4,-,0.00,,Overcast,220,2012-12-16 07:54:00
3:54 AM,50.0,46.0,86,29.63,10.0,SW,9.2,-,N/A,,Overcast,220,2012-12-16 08:54:00
4:54 AM,50.0,46.0,86,29.62,10.0,SW,9.2,-,N/A,,Overcast,220,2012-12-16 09:54:00
5:54 AM,50.0,46.0,86,29.62,10.0,SSW,6.9,-,N/A,,Overcast,210,2012-12-16 10:54:00
6:26 AM,50.0,46.4,87,29.61,8.0,SW,10.4,-,N/A,,Overcast,220,2012-12-16 11:26:00
6:42 AM,50.0,46.4,87,29.61,9.0,SW,12.7,-,N/A,,Overcast,230,2012-12-16 11:42:00
6:54 AM,50.0,46.0,86,29.62,9.0,SW,12.7,-,N/A,,Overcast,230,2012-12-16 11:54:00
7:20 AM,50.0,46.4,87,29.62,9.0,SW,12.7,-,N/A,,Overcast,220,2012-12-16 12:20:00
7:54 AM,48.9,45.0,86,29.64,6.0,SW,15.0,23.0,0.00,Rain,Light Rain,230,2012-12-16 12:54:00
8:05 AM,48.2,44.6,87,29.63,4.0,WSW,13.8,-,0.00,Rain,Light Rain,240,2012-12-16 13:05:00
8:39 AM,48.2,46.4,93,29.64,8.0,SW,9.2,-,0.01,,Overcast,230,2012-12-16 13:39:00
8:54 AM,48.0,45.0,89,29.65,10.0,SW,12.7,-,0.01,,Overcast,230,2012-12-16 13:54:00
8:56 AM,48.2,44.6,87,29.64,10.0,SW,11.5,-,N/A,,Overcast,230,2012-12-16 13:56:00
9:54 AM,48.0,44.1,86,29.66,10.0,SW,10.4,-,N/A,,Overcast,230,2012-12-16 14:54:00
10:15 AM,48.2,44.6,87,29.65,10.0,SW,10.4,-,N/A,,Overcast,230,2012-12-16 15:15:00
10:32 AM,48.2,44.6,87,29.65,10.0,SW,12.7,-,N/A,,Overcast,220,2012-12-16 15:32:00
10:45 AM,48.2,44.6,87,29.65,10.0,SW,12.7,-,N/A,,Overcast,220,2012-12-16 15:45:00
10:54 AM,48.0,44.1,86,29.66,10.0,SW,11.5,-,N/A,,Overcast,220,2012-12-16 15:54:00
11:20 AM,48.2,44.6,87,29.65,10.0,SW,12.7,-,N/A,,Overcast,230,2012-12-16 16:20:00
11:26 AM,48.2,44.6,87,29.66,9.0,SW,11.5,-,N/A,,Overcast,230,2012-12-16 16:26:00
11:54 AM,48.0,44.1,86,29.65,8.0,WSW,9.2,-,N/A,,Overcast,240,2012-12-16 16:54:00
12:54 PM,46.9,44.1,90,29.64,5.0,SW,9.2,-,N/A,,Overcast,230,2012-12-16 17:54:00
1:13 PM,46.4,42.8,87,29.63,9.0,WSW,13.8,-,0.00,Rain,Light Rain,250,2012-12-16 18:13:00
1:15 PM,46.4,42.8,87,29.63,10.0,WSW,12.7,-,0.00,Rain,Light Rain,250,2012-12-16 18:15:00
1:54 PM,45.0,42.1,90,29.63,4.0,West,8.1,-,0.00,,Overcast,280,2012-12-16 18:54:00
2:22 PM,44.6,42.8,93,29.62,6.0,WNW,6.9,-,N/A,,Overcast,290,2012-12-16 19:22:00
2:35 PM,44.6,42.8,93,29.63,7.0,West,8.1,-,N/A,,Overcast,270,2012-12-16 19:35:00
2:54 PM,45.0,41.0,86,29.62,6.0,West,10.4,-,N/A,,Overcast,270,2012-12-16 19:54:00
3:42 PM,44.6,39.2,81,29.61,9.0,West,8.1,-,N/A,,Overcast,270,2012-12-16 20:42:00
3:54 PM,44.1,39.9,85,29.64,10.0,WSW,6.9,-,N/A,,Overcast,240,2012-12-16 20:54:00
4:17 PM,44.6,39.2,81,29.65,10.0,West,8.1,-,N/A,,Overcast,270,2012-12-16 21:17:00
4:54 PM,43.0,37.9,82,29.66,9.0,West,8.1,-,N/A,,Overcast,270,2012-12-16 21:54:00
5:19 PM,42.8,37.4,81,29.67,9.0,WSW,9.2,-,N/A,,Overcast,250,2012-12-16 22:19:00
5:54 PM,42.1,37.0,82,29.68,10.0,WSW,10.4,-,N/A,,Overcast,240,2012-12-16 22:54:00
6:54 PM,42.1,37.0,82,29.68,9.0,SW,8.1,-,N/A,,Overcast,230,2012-12-16 23:54:00
7:54 PM,41.0,37.0,86,29.69,10.0,WSW,9.2,-,N/A,,Overcast,240,2012-12-17 00:54:00
8:54 PM,41.0,36.0,82,29.72,10.0,WSW,9.2,-,N/A,,Overcast,250,2012-12-17 01:54:00
9:38 PM,41.0,35.6,81,29.71,10.0,West,6.9,-,N/A,,Overcast,260,2012-12-17 02:38:00
9:54 PM,41.0,36.0,82,29.72,10.0,West,8.1,-,N/A,,Overcast,260,2012-12-17 02:54:00
10:21 PM,41.0,35.6,81,29.71,9.0,West,9.2,-,N/A,,Overcast,280,2012-12-17 03:21:00
10:54 PM,39.9,35.1,83,29.73,9.0,WNW,11.5,-,N/A,,Overcast,290,2012-12-17 03:54:00
11:13 PM,39.2,35.6,87,29.71,8.0,West,9.2,-,N/A,,Overcast,280,2012-12-17 04:13:00
11:23 PM,39.2,35.6,87,29.71,8.0,West,6.9,-,N/A,,Overcast,280,2012-12-17 04:23:00
11:54 PM,39.0,35.1,86,29.73,9.0,West,9.2,-,N/A,,Overcast,260,2012-12-17 04:54:00